Time,TemperatureF,DewpointF,PressureIn,WindDirection,WindDirectionDegrees,WindSpeedMPH,WindSpeedGustMPH,Humidity,HourlyPrecipIn,Conditions,Clouds,dailyrainin,SoftwareType,DateUTC
2013-01-11 00:03:00,31.0,24.0,30.41,SE,132,5.0,8.0,75,0.00,,,0.00,,2013-01-11 05:03:00,
2013-01-11 00:13:00,31.0,24.0,30.41,ESE,119,5.0,8.0,75,0.00,,,0.00,,2013-01-11 05:13:00,
2013-01-11 00:22:00,31.0,24.0,30.41,ESE,119,5.0,8.0,75,0.00,,,0.00,,2013-01-11 05:22:00,
2013-01-11 00:33:00,31.0,24.0,30.40,SE,136,5.0,8.0,74,0.00,,,0.00,,2013-01-11 05:33:00,
2013-01-11 00:43:00,31.0,24.0,30.40,SE,136,5.0,8.0,74,0.00,,,0.00,,2013-01-11 05:43:00,
2013-01-11 00:53:00,31.0,24.0,30.38,SE,144,3.0,6.0,74,0.00,,,0.00,,2013-01-11 05:53:00,
2013-01-11 01:03:00,31.0,23.0,30.38,SSW,198,3.0,10.0,73,0.00,,,0.00,,2013-01-11 06:03:00,
2013-01-11 01:12:00,31.0,23.0,30.38,SSW,198,3.0,10.0,73,0.00,,,0.00,,2013-01-11 06:12:00,
2013-01-11 01:22:00,31.0,23.0,30.37,SE,146,5.0,9.0,73,0.00,,,0.00,,2013-01-11 06:22:00,
2013-01-11 01:32:00,31.0,23.0,30.36,SSE,156,4.0,12.0,73,0.00,,,0.00,,2013-01-11 06:32:00,
2013-01-11 01:42:00,31.0,23.0,30.36,SSE,156,4.0,12.0,73,0.00,,,0.00,,2013-01-11 06:42:00,
2013-01-11 01:52:00,31.0,23.0,30.36,SSE,161,6.0,15.0,73,0.00,,,0.00,,2013-01-11 06:52:00,
2013-01-11 02:02:00,31.0,23.0,30.36,South,171,5.0,9.0,72,0.00,,,0.00,,2013-01-11 07:02:00,
2013-01-11 02:12:00,31.0,23.0,30.36,SSE,157,7.0,12.0,72,0.00,,,0.00,,2013-01-11 07:12:00,
2013-01-11 02:22:00,31.0,23.0,30.36,SSE,157,7.0,12.0,72,0.00,,,0.00,,2013-01-11 07:22:00,
2013-01-11 02:32:00,32.0,24.0,30.34,SSE,154,6.0,11.0,72,0.00,,,0.00,,2013-01-11 07:32:00,
2013-01-11 02:42:00,32.0,24.0,30.34,SSE,162,7.0,13.0,71,0.00,,,0.00,,2013-01-11 07:42:00,
2013-01-11 02:52:00,32.0,24.0,30.34,SSE,162,7.0,13.0,71,0.00,,,0.00,,2013-01-11 07:52:00,
2013-01-11 03:02:00,32.0,23.0,30.31,SSE,155,9.0,15.0,70,0.00,,,0.00,,2013-01-11 08:02:00,
2013-01-11 03:12:00,32.0,23.0,30.30,SSE,149,6.0,15.0,70,0.00,,,0.00,,2013-01-11 08:12:00,
2013-01-11 03:22:00,32.0,23.0,30.30,SSE,149,6.0,15.0,70,0.00,,,0.00,,2013-01-11 08:22:00,
2013-01-11 03:32:00,32.0,23.0,30.29,SE,143,5.0,14.0,70,0.00,,,0.00,,2013-01-11 08:32:00,
2013-01-11 03:42:00,32.0,23.0,30.29,SE,143,5.0,14.0,70,0.00,,,0.00,,2013-01-11 08:42:00,
2013-01-11 03:53:00,32.0,23.0,30.28,SSE,153,6.0,12.0,68,0.00,,,0.00,,2013-01-11 08:53:00,
2013-01-11 04:02:00,33.0,23.0,30.26,SSE,147,7.0,20.0,67,0.00,,,0.00,,2013-01-11 09:02:00,
2013-01-11 04:12:00,33.0,23.0,30.26,SSE,147,7.0,20.0,67,0.00,,,0.00,,2013-01-11 09:12:00,
2013-01-11 04:23:00,33.0,23.0,30.26,SE,141,9.0,16.0,65,0.00,,,0.00,,2013-01-11 09:23:00,
2013-01-11 04:32:00,34.0,23.0,30.25,SSE,156,10.0,17.0,64,0.00,,,0.00,,2013-01-11 09:32:00,
2013-01-11 04:42:00,34.0,23.0,30.25,SSE,156,10.0,17.0,64,0.00,,,0.00,,2013-01-11 09:42:00,
2013-01-11 04:52:00,34.0,22.0,30.24,SSE,147,9.0,18.0,62,0.00,,,0.00,,2013-01-11 09:52:00,
2013-01-11 05:02:00,35.0,23.0,30.23,SE,145,9.0,19.0,60,0.00,,,0.00,,2013-01-11 10:02:00,
2013-01-11 05:12:00,35.0,23.0,30.23,SE,145,9.0,19.0,60,0.00,,,0.00,,2013-01-11 10:12:00,
2013-01-11 05:22:00,35.0,22.0,30.23,SSE,153,8.0,18.0,59,0.00,,,0.00,,2013-01-11 10:22:00,
2013-01-11 05:32:00,36.0,23.0,30.23,SSE,152,5.0,18.0,58,0.00,,,0.00,,2013-01-11 10:32:00,
2013-01-11 05:42:00,36.0,23.0,30.23,SSE,152,5.0,18.0,58,0.00,,,0.00,,2013-01-11 10:42:00,
2013-01-11 05:52:00,36.0,22.0,30.22,SE,132,7.0,12.0,57,0.00,,,0.00,,2013-01-11 10:52:00,
2013-01-11 06:03:00,36.0,22.0,30.22,SSE,155,5.0,11.0,57,0.00,,,0.00,,2013-01-11 11:03:00,
2013-01-11 06:12:00,36.0,22.0,30.22,SSE,155,5.0,11.0,57,0.00,,,0.00,,2013-01-11 11:12:00,
2013-01-11 06:22:00,36.0,22.0,30.21,SE,126,7.0,13.0,57,0.00,,,0.00,,2013-01-11 11:22:00,
2013-01-11 06:33:00,36.0,23.0,30.20,SE,142,7.0,16.0,58,0.00,,,0.00,,2013-01-11 11:33:00,
2013-01-11 06:42:00,36.0,23.0,30.20,SE,142,7.0,16.0,58,0.00,,,0.00,,2013-01-11 11:42:00,
2013-01-11 06:53:00,36.0,23.0,30.19,SE,136,8.0,16.0,58,0.00,,,0.00,,2013-01-11 11:53:00,
2013-01-11 07:03:00,37.0,23.0,30.16,SE,130,8.0,17.0,57,0.00,,,0.00,,2013-01-11 12:03:00,
2013-01-11 07:12:00,37.0,23.0,30.16,SE,130,8.0,17.0,57,0.00,,,0.00,,2013-01-11 12:12:00,
2013-01-11 07:22:00,37.0,23.0,30.17,SE,126,7.0,13.0,56,0.00,,,0.00,,2013-01-11 12:22:00,
2013-01-11 07:33:00,37.0,23.0,30.18,South,175,8.0,16.0,56,0.00,,,0.00,,2013-01-11 12:33:00,
2013-01-11 07:42:00,37.0,23.0,30.18,South,175,8.0,16.0,56,0.00,,,0.00,,2013-01-11 12:42:00,
2013-01-11 07:53:00,37.0,23.0,30.18,SSE,154,6.0,14.0,57,0.00,,,0.00,,2013-01-11 12:53:00,
2013-01-11 08:03:00,37.0,23.0,30.17,SSE,156,5.0,12.0,57,0.00,,,0.00,,2013-01-11 13:03:00,
2013-01-11 08:13:00,37.0,23.0,30.17,SSE,156,5.0,12.0,57,0.00,,,0.00,,2013-01-11 13:13:00,
2013-01-11 08:22:00,38.0,24.0,30.15,SSE,155,5.0,18.0,57,0.00,,,0.00,,2013-01-11 13:22:00,
2013-01-11 08:33:00,38.0,24.0,30.15,SE,143,7.0,16.0,57,0.00,,,0.00,,2013-01-11 13:33:00,
2013-01-11 08:42:00,38.0,24.0,30.15,SE,143,7.0,16.0,57,0.00,,,0.00,,2013-01-11 13:42:00,
2013-01-11 08:53:00,38.0,24.0,30.16,SSE,151,9.0,20.0,57,0.00,,,0.00,,2013-01-11 13:53:00,
2013-01-11 09:03:00,38.0,25.0,30.14,SSE,155,13.0,20.0,58,0.00,,,0.00,,2013-01-11 14:03:00,
2013-01-11 09:12:00,38.0,25.0,30.14,SSE,161,11.0,25.0,58,0.00,,,0.00,,2013-01-11 14:12:00,
2013-01-11 09:23:00,38.0,25.0,30.14,SSE,161,11.0,25.0,58,0.00,,,0.00,,2013-01-11 14:23:00,
2013-01-11 09:33:00,38.0,25.0,30.13,SSE,148,7.0,18.0,58,0.00,,,0.00,,2013-01-11 14:33:00,
2013-01-11 09:43:00,38.0,25.0,30.13,SE,146,7.0,17.0,58,0.00,,,0.00,,2013-01-11 14:43:00,
2013-01-11 09:53:00,38.0,25.0,30.13,SE,146,7.0,17.0,58,0.00,,,0.00,,2013-01-11 14:53:00,
2013-01-11 10:03:00,38.0,25.0,30.13,SSE,162,6.0,15.0,59,0.00,,,0.00,,2013-01-11 15:03:00,
2013-01-11 10:13:00,38.0,27.0,30.13,South,173,7.0,20.0,64,0.00,,,0.00,,2013-01-11 15:13:00,
2013-01-11 10:23:00,38.0,27.0,30.13,South,173,7.0,20.0,64,0.00,,,0.00,,2013-01-11 15:23:00,
2013-01-11 10:33:00,37.0,26.0,30.13,South,171,6.0,13.0,65,0.00,,,0.00,,2013-01-11 15:33:00,
2013-01-11 10:43:00,37.0,26.0,30.13,South,171,6.0,13.0,65,0.00,,,0.00,,2013-01-11 15:43:00,
2013-01-11 10:53:00,38.0,27.0,30.13,South,178,7.0,16.0,65,0.00,,,0.00,,2013-01-11 15:53:00,
2013-01-11 11:03:00,39.0,28.0,30.11,SSE,158,10.0,17.0,64,0.00,,,0.00,,2013-01-11 16:03:00,
2013-01-11 11:12:00,39.0,27.0,30.10,SSE,164,10.0,24.0,63,0.00,,,0.00,,2013-01-11 16:12:00,
2013-01-11 11:23:00,39.0,27.0,30.10,SSE,164,10.0,24.0,63,0.00,,,0.00,,2013-01-11 16:23:00,
2013-01-11 11:33:00,39.0,27.0,30.10,SSE,162,8.0,17.0,63,0.00,,,0.00,,2013-01-11 16:33:00,
2013-01-11 11:43:00,40.0,28.0,30.09,South,181,6.0,19.0,62,0.00,,,0.00,,2013-01-11 16:43:00,
2013-01-11 11:52:00,40.0,28.0,30.09,South,181,6.0,19.0,62,0.00,,,0.00,,2013-01-11 16:52:00,
2013-01-11 12:03:00,41.0,29.0,30.06,South,172,7.0,27.0,61,0.00,,,0.00,,2013-01-11 17:03:00,
2013-01-11 12:12:00,41.0,29.0,30.05,South,176,11.0,20.0,61,0.00,,,0.00,,2013-01-11 17:12:00,
2013-01-11 12:22:00,41.0,29.0,30.05,South,176,11.0,20.0,61,0.00,,,0.00,,2013-01-11 17:22:00,
2013-01-11 12:33:00,40.0,28.0,30.04,SSW,203,11.0,17.0,63,0.00,,,0.00,,2013-01-11 17:33:00,
2013-01-11 12:43:00,40.0,28.0,30.04,SSW,203,11.0,17.0,63,0.00,,,0.00,,2013-01-11 17:43:00,
2013-01-11 12:53:00,39.0,29.0,30.02,South,183,8.0,20.0,67,0.02,,,0.02,,2013-01-11 17:53:00,
2013-01-11 13:03:00,38.0,29.0,30.02,South,186,6.0,14.0,69,0.02,,,0.02,,2013-01-11 18:03:00,
2013-01-11 13:13:00,38.0,29.0,30.02,South,186,6.0,14.0,69,0.02,,,0.02,,2013-01-11 18:13:00,
2013-01-11 13:23:00,38.0,29.0,30.01,SSW,193,9.0,21.0,69,0.02,,,0.02,,2013-01-11 18:23:00,
2013-01-11 13:33:00,39.0,29.0,30.00,South,178,8.0,25.0,68,0.02,,,0.02,,2013-01-11 18:33:00,
2013-01-11 13:43:00,39.0,29.0,30.00,South,178,8.0,25.0,68,0.02,,,0.02,,2013-01-11 18:43:00,
2013-01-11 13:53:00,39.0,29.0,29.99,SSW,192,7.0,18.0,68,0.00,,,0.02,,2013-01-11 18:53:00,
2013-01-11 14:03:00,39.0,29.0,29.98,South,179,11.0,21.0,67,0.00,,,0.02,,2013-01-11 19:03:00,
2013-01-11 14:12:00,39.0,29.0,29.98,South,179,11.0,21.0,67,0.00,,,0.02,,2013-01-11 19:12:00,
2013-01-11 14:22:00,39.0,28.0,29.98,SSW,194,9.0,21.0,65,0.00,,,0.02,,2013-01-11 19:22:00,
2013-01-11 14:32:00,39.0,28.0,29.97,SSW,198,8.0,18.0,64,0.00,,,0.02,,2013-01-11 19:32:00,
2013-01-11 14:43:00,39.0,28.0,29.97,SSW,198,8.0,18.0,64,0.00,,,0.02,,2013-01-11 19:43:00,
2013-01-11 14:53:00,40.0,28.0,29.96,SSW,196,7.0,22.0,61,0.00,,,0.02,,2013-01-11 19:53:00,
2013-01-11 15:03:00,40.0,28.0,29.96,SSW,198,8.0,21.0,61,0.00,,,0.02,,2013-01-11 20:03:00,
2013-01-11 15:12:00,40.0,28.0,29.96,SSW,198,8.0,21.0,61,0.00,,,0.02,,2013-01-11 20:12:00,
2013-01-11 15:22:00,40.0,27.0,29.96,South,191,6.0,19.0,60,0.00,,,0.02,,2013-01-11 20:22:00,
2013-01-11 15:33:00,40.0,28.0,29.96,SW,218,10.0,19.0,62,0.00,,,0.02,,2013-01-11 20:33:00,
2013-01-11 15:43:00,40.0,28.0,29.96,SW,218,10.0,19.0,62,0.00,,,0.02,,2013-01-11 20:43:00,
2013-01-11 15:53:00,40.0,29.0,29.96,SW,217,10.0,24.0,65,0.00,,,0.02,,2013-01-11 20:53:00,
2013-01-11 16:03:00,38.0,30.0,29.96,SW,220,12.0,29.0,72,0.04,,,0.06,,2013-01-11 21:03:00,
2013-01-11 16:12:00,37.0,30.0,29.97,SW,219,11.0,23.0,75,0.06,,,0.08,,2013-01-11 21:12:00,
2013-01-11 16:23:00,37.0,30.0,29.97,SW,219,11.0,23.0,75,0.06,,,0.08,,2013-01-11 21:23:00,
2013-01-11 16:33:00,37.0,30.0,29.96,SSW,192,10.0,22.0,76,0.08,,,0.10,,2013-01-11 21:33:00,
2013-01-11 16:42:00,37.0,30.0,29.96,SSW,192,10.0,22.0,76,0.08,,,0.10,,2013-01-11 21:42:00,
2013-01-11 16:53:00,37.0,30.0,29.94,SSW,213,9.0,26.0,77,0.08,,,0.10,,2013-01-11 21:53:00,
2013-01-11 17:02:00,36.0,29.0,29.91,SSE,163,12.0,24.0,77,0.04,,,0.10,,2013-01-11 22:02:00,
2013-01-11 17:12:00,37.0,30.0,29.93,SSE,161,9.0,19.0,77,0.02,,,0.10,,2013-01-11 22:12:00,
2013-01-11 17:22:00,37.0,30.0,29.93,SSE,161,9.0,19.0,77,0.02,,,0.10,,2013-01-11 22:22:00,
2013-01-11 17:33:00,37.0,30.0,29.94,SSW,213,8.0,18.0,77,0.00,,,0.10,,2013-01-11 22:33:00,
2013-01-11 17:42:00,37.0,30.0,29.94,SSW,213,8.0,18.0,77,0.00,,,0.10,,2013-01-11 22:42:00,
2013-01-11 17:53:00,37.0,30.0,29.94,SSW,200,5.0,19.0,77,0.00,,,0.10,,2013-01-11 22:53:00,
2013-01-11 18:02:00,38.0,31.0,29.93,South,181,7.0,21.0,77,0.00,,,0.10,,2013-01-11 23:02:00,
2013-01-11 18:13:00,38.0,31.0,29.95,ESE,123,5.0,8.0,77,0.00,,,0.10,,2013-01-11 23:13:00,
2013-01-11 18:23:00,38.0,31.0,29.95,ESE,123,5.0,8.0,77,0.00,,,0.10,,2013-01-11 23:23:00,
2013-01-11 18:32:00,38.0,31.0,29.95,SSE,161,4.0,11.0,77,0.00,,,0.10,,2013-01-11 23:32:00,
2013-01-11 18:43:00,38.0,31.0,29.95,SSE,161,4.0,11.0,77,0.00,,,0.10,,2013-01-11 23:43:00,
2013-01-11 18:53:00,38.0,31.0,29.98,South,170,4.0,11.0,77,0.00,,,0.10,,2013-01-11 23:53:00,
2013-01-11 19:02:00,38.0,31.0,29.98,South,170,4.0,15.0,77,0.00,,,0.10,,2013-01-12 00:02:00,
2013-01-11 19:12:00,38.0,31.0,30.00,SW,228,8.0,13.0,77,0.00,,,0.10,,2013-01-12 00:12:00,
2013-01-11 19:23:00,38.0,31.0,30.00,SW,228,8.0,13.0,77,0.00,,,0.10,,2013-01-12 00:23:00,
2013-01-11 19:33:00,39.0,32.0,29.98,SSW,207,7.0,17.0,77,0.00,,,0.10,,2013-01-12 00:33:00,
2013-01-11 19:43:00,39.0,32.0,29.98,SSW,207,7.0,17.0,77,0.00,,,0.10,,2013-01-12 00:43:00,
2013-01-11 19:52:00,39.0,32.0,29.98,SW,224,6.0,26.0,77,0.00,,,0.10,,2013-01-12 00:52:00,
2013-01-11 20:02:00,39.0,32.0,29.97,SSW,210,8.0,22.0,77,0.00,,,0.10,,2013-01-12 01:02:00,
2013-01-11 20:12:00,39.0,32.0,29.97,SSW,210,8.0,22.0,77,0.00,,,0.10,,2013-01-12 01:12:00,
2013-01-11 20:22:00,39.0,32.0,29.97,SSW,206,7.0,16.0,77,0.00,,,0.10,,2013-01-12 01:22:00,
2013-01-11 20:33:00,39.0,33.0,29.95,South,176,7.0,18.0,78,0.00,,,0.10,,2013-01-12 01:33:00,
2013-01-11 20:43:00,39.0,33.0,29.95,South,176,7.0,18.0,78,0.00,,,0.10,,2013-01-12 01:43:00,
2013-01-11 20:53:00,39.0,33.0,29.96,South,174,5.0,17.0,78,0.00,,,0.10,,2013-01-12 01:53:00,
2013-01-11 21:02:00,39.0,33.0,29.97,SSE,161,8.0,15.0,78,0.00,,,0.10,,2013-01-12 02:02:00,
2013-01-11 21:12:00,39.0,33.0,29.97,SSE,161,8.0,15.0,78,0.00,,,0.10,,2013-01-12 02:12:00,
2013-01-11 21:22:00,39.0,33.0,29.98,SE,146,7.0,14.0,78,0.00,,,0.10,,2013-01-12 02:22:00,
2013-01-11 21:33:00,39.0,33.0,29.98,South,182,6.0,12.0,78,0.00,,,0.10,,2013-01-12 02:33:00,
2013-01-11 21:43:00,39.0,33.0,29.98,South,182,6.0,12.0,78,0.00,,,0.10,,2013-01-12 02:43:00,
2013-01-11 21:53:00,39.0,33.0,29.99,South,183,3.0,11.0,78,0.00,,,0.10,,2013-01-12 02:53:00,
2013-01-11 22:03:00,39.0,33.0,30.00,SSE,164,6.0,10.0,78,0.00,,,0.10,,2013-01-12 03:03:00,
2013-01-11 22:12:00,39.0,33.0,30.00,SSE,164,6.0,10.0,78,0.00,,,0.10,,2013-01-12 03:12:00,
2013-01-11 22:22:00,39.0,33.0,30.00,SE,138,5.0,15.0,79,0.00,,,0.10,,2013-01-12 03:22:00,
2013-01-11 22:33:00,39.0,33.0,30.00,SE,143,8.0,11.0,79,0.00,,,0.10,,2013-01-12 03:33:00,
2013-01-11 22:43:00,39.0,33.0,30.00,SE,143,8.0,11.0,79,0.00,,,0.10,,2013-01-12 03:43:00,
2013-01-11 22:53:00,39.0,34.0,29.99,South,173,5.0,14.0,81,0.00,,,0.10,,2013-01-12 03:53:00,
2013-01-11 23:02:00,39.0,33.0,29.98,SSE,164,5.0,8.0,80,0.00,,,0.10,,2013-01-12 04:02:00,
2013-01-11 23:12:00,39.0,34.0,29.98,SE,139,5.0,11.0,81,0.00,,,0.10,,2013-01-12 04:12:00,
2013-01-11 23:22:00,39.0,34.0,29.98,SE,139,5.0,11.0,81,0.00,,,0.10,,2013-01-12 04:22:00,
2013-01-11 23:32:00,39.0,34.0,29.99,SE,141,4.0,10.0,81,0.00,,,0.10,,2013-01-12 04:32:00,
2013-01-11 23:42:00,39.0,34.0,29.99,SE,141,4.0,10.0,81,0.00,,,0.10,,2013-01-12 04:42:00,
2013-01-11 23:52:00,39.0,34.0,29.98,SE,140,6.0,11.0,81,0.00,,,0.10,,2013-01-12 04:52:00,